Regional Weather Roundup
Issued by NWS

Home | Current Version | Previous Version | Text Only | Print | Product List | Glossary Off
Versions: 1 2 3 4 5 6 7 8 9 10 11 12 13 14 15 16 17 18 19 20 21 22 23 24 25 26 27 28 29 30 31 32 33 34 35 36 37 38 39 40 41 42 43 44 45 46 47 48 49 50

000
ASUS43 KDMX 280407
RWRIA

WEATHER ROUNDUP FOR IOWA
NATIONAL WEATHER SERVICE DES MOINES IA
1100 PM CDT MON APR 27 2015

NOTE: "FAIR" INDICATES FEW OR NO CLOUDS BELOW 12,000 FEET WITH NO
SIGNIFICANT WEATHER AND/OR OBSTRUCTIONS TO VISIBILITY.

* - THESE STATIONS ARE NOT NWS STATIONS...THUS NOT UNDER NWS
QUALITY CONTROL.  THEY ALSO DO NOT REPORT WEATHER SUCH
AS PRECIPITATION OR FOG.

IAZ001>003-012>014-020>022-031>034-043>046-280500-
   NORTHWEST IOWA

CITY           SKY/WX    TMP DP  RH WIND       PRES   REMARKS
CARROLL *      MOCLDY    48  36  61 CALM      30.17R
CHEROKEE *     CLEAR     45  34  65 CALM      30.18R
DENISON *      CLEAR     46  34  61 CALM      30.16S
LE MARS *      CLEAR     46  34  61 CALM      30.19R
ORANGE CITY *  CLEAR     55  27  33 CALM      30.18S
SHELDON *      CLEAR     45  25  45 CALM      30.17S
SIOUX CITY     PTCLDY    48  26  42 W3        30.18R
SPENCER          N/A     45  33  63 CALM      30.17S
STORM LAKE *   CLEAR     57  32  38 NE3       30.18S
$$

IAZ055>058-069>071-079>083-090>094-280500-
   SOUTHWEST IOWA

CITY           SKY/WX    TMP DP  RH WIND       PRES   REMARKS
ATLANTIC *     PTCLDY    46  37  71 N5        30.17R
AUDUBON *      CLEAR     45  37  76 CALM      30.18S
CLARINDA *     CLEAR     48  41  76 CALM      30.17S
COUNCIL BLFS * CLEAR     55  34  44 N6        30.17S
CRESTON *      CLEAR     50  34  53 NE7       30.16R
HARLAN  *      CLEAR     50  36  57 CALM      30.21R
LAMONI         CLEAR     52  36  54 CALM      30.14R
RED OAK *      CLEAR     48  37  66 CALM      30.16S
SHENANDOAH *   CLEAR     48  39  71 N5        30.16S
$$

IAZ047>049-059>061-072>074-084-280500-
   CENTRAL IOWA

CITY           SKY/WX    TMP DP  RH WIND       PRES   REMARKS
AMES           CLEAR     50  36  58 NW6       30.15R
ANKENY *       CLEAR     48  37  66 CALM      30.15R
CHARITON *     PTCLDY    54  34  47 CALM      30.14R
DES MOINES     CLEAR     56  35  45 CALM      30.15R
GRINNELL*      CLEAR     52  37  58 CALM      30.14S
KNOXVILLE *    CLEAR     54  34  47 CALM      30.12S
MARSHALLTOWN   CLEAR     51  35  54 NE7       30.14R
PELLA *        CLEAR     54  41  62 CALM      30.14S
PERRY *          N/A     54  36  50 N3        30.16S
$$

IAZ004>006-015-016-023>025-035-036-280500-
   NORTH CENTRAL IOWA

CITY           SKY/WX    TMP DP  RH WIND       PRES   REMARKS
ALGONA *       CLEAR     52  32  46 CALM      30.17S
CLARION *      CLEAR     46  34  61 NE6       30.16S
ESTHERVILLE    PTCLDY    42  23  46 NW3       30.17R
FORT DODGE *   CLEAR     48  36  61 CALM      30.17S
MASON CITY     CLEAR     44  32  62 N7        30.17R
FOREST CITY *  CLEAR     45  34  65 CALM      30.16S
IOWA FALLS *     N/A     46  34  61 CALM      30.16S
$$

IAZ007>011-017>019-026>030-037>042-050>054-066-280500-
   NORTHEAST IOWA

CITY           SKY/WX    TMP DP  RH WIND       PRES   REMARKS
CEDAR RAPIDS   CLEAR     51  35  54 CALM      30.12R
CHARLES CITY * CLEAR     54  34  47 N5        30.15S
CLINTON *      CLEAR     43  34  70 CALM      30.13S
DECORAH *      CLEAR     54  32  43 W5        30.12S
DUBUQUE        CLEAR     46  34  62 CALM      30.11S
MONTICELLO *   CLEAR     46  37  71 CALM      30.11F
OELWEIN *      CLEAR     54  36  50 CALM      30.14S
WATERLOO       CLEAR     45  36  70 CALM      30.13S
$$

IAZ064-065-067-068-078-280500-
   EAST CENTRAL IOWA

CITY           SKY/WX    TMP DP  RH WIND       PRES   REMARKS
DAVENPORT      CLEAR     48  35  60 NW3       30.11S
IOWA CITY      CLEAR     47  37  68 NW5       30.13S
MT. PLEASANT * CLEAR     50  36  57 CALM      30.12S
MUSCATINE *    CLEAR     48  39  71 CALM      30.12S
QUAD CITIES    CLEAR     45  37  73 CALM      30.10S
$$

IAZ062-063-075>077-085>089-095>099-280500-
   SOUTHEAST IOWA

CITY           SKY/WX    TMP DP  RH WIND       PRES   REMARKS
BURLINGTON     CLEAR     47  38  71 NW3       30.11R
FAIRFIELD *    CLEAR     50  36  57 CALM      30.13R
FORT MADISON * CLEAR     52  36  54 CALM      30.12S
KEOKUK *       CLEAR     52  37  58 CALM      30.11S
OSKALOOSA *      N/A     54  34  47 CALM      30.13R
CENTERVILLE *  CLEAR     50  36  57 CALM      30.14S
OTTUMWA        CLEAR     48  35  60 CALM      30.13R
WASHINGTON *   CLEAR     52  37  58 CALM      30.12S
$$

ABBREVIATIONS USED IN REMARKS
   TC - TEMPERATURES IN CELSIUS
  WCI - WIND CHILL INDEX
   HX - HEAT INDEX
  VSB - VISIBILITY
$$



USA.gov is the U.S. government's official web portal to all federal, state and local government web resources and services.